[[{"header":{"parameterUnit":"m.s-1","parameterCategory":1,"la1":30.2991,"la2":30.254,"lo1":-89.0895,"lo2":-89.0444,"dy":0.0017,"dx":0.0017,"nx":28,"ny":28,"refTime":"2025-04-15T03:00:00:Z","depth":0,"parameterNumber":2,"parameterNumberName":"U-component_of_WINDS"},"data":[0,0,0,0,0,0,0,0,0,0,0,0,0,0,0,0,0,0,0,0,0,0,0,0,0,0,0,0,0,0,0,0,0,0,0,0,0,0,0,0,0,0,0,0,0,0,0,0,0,0,0,0,0,0,0,0,0,0,4.9923,4.9925,0,5.013,5.0132,5.0134,5.0094,5.009,5.0086,5.0083,5.03,5.0309,5.0318,0,0,0,0,0,0,0,0,0,0,0,0,0,4.9497,4.9505,4.9923,4.9925,4.9928,5.0129,5.0132,5.0135,5.0095,5.009,5.0085,5.0081,5.0297,5.0308,5.0319,0,0,0,0,0,0,0,0,0,0,0,0,0,4.9691,4.9508,4.9922,4.9932,4.9935,5.0129,5.0132,5.0136,5.0096,5.009,5.0084,5.0079,5.0293,5.0306,5.032,5.0519,0,0,5.0363,5.0369,0,0,0,0,0,0,0,0,4.968,4.9707,4.9928,4.9932,4.9935,5.008,5.0061,5.0264,5.0097,5.0035,5.0083,5.0076,5.0232,5.025,5.0301,5.0529,5.0538,5.0364,5.0372,5.0378,5.0382,0,0,0,0,0,0,0,4.9667,4.9698,5.0005,4.9931,4.9936,4.9927,4.9949,5.01,5.0162,5.004,5.0037,5.0062,5.0232,5.0288,5.0306,5.0541,5.0364,5.0376,5.0385,5.039,5.0941,5.0947,0,0,0,0,0,0,4.9649,4.9687,4.9998,5.0011,4.9791,4.994,4.9963,5.0039,5.0161,5.0174,5.0067,5.0059,5.0267,5.029,5.0314,5.0553,5.0378,5.0391,5.0399,5.0935,5.0943,5.095,0,0,0,0,0,0,4.964,4.9678,4.999,4.9848,4.9887,4.9953,5.0039,5.0046,5.0102,5.0181,5.0192,5.0112,5.0264,5.0294,5.0468,5.056,5.0398,5.041,5.0928,5.0938,5.0946,5.1034,0,0,0,0,0,0,4.9628,4.9675,4.975,4.985,4.9895,5.0139,5.0044,5.0055,5.0125,5.0118,5.0226,5.0239,5.0261,5.0447,5.0481,5.0576,5.0421,5.092,5.0932,5.0943,5.1024,5.1046,5.1065,0,0,0,0,0,4.9613,4.9768,4.9754,4.9792,4.999,5.0145,5.017,5.0192,5.0133,5.021,5.026,5.0235,5.0545,5.0465,5.0503,5.0604,5.0914,5.0929,5.0942,5.1014,5.1041,5.1064,0,0,0,0,0,0,4.9679,4.9781,4.9767,4.9958,5.0043,5.0137,5.0235,5.022,5.0325,5.0314,5.0337,5.0362,5.0538,5.0589,5.0498,5.0802,5.0721,5.0744,5.0763,5.0789,5.0809,5.0793,5.0433,0,0,0,0,0,4.9715,4.9831,4.9914,5.0075,5.0118,5.0169,5.0238,5.0247,5.0336,5.0372,5.0435,5.0524,5.0641,5.0718,5.083,5.1031,5.1054,5.1119,5.1139,5.1156,5.1175,5.1284,5.1314,5.0996,5.0996,5.0996,0,0,4.9792,4.9862,4.9934,5.009,5.0157,5.0277,5.02,5.0331,5.042,5.0393,5.0559,5.0609,5.071,5.0897,5.0983,5.0945,5.1268,5.1174,5.1187,5.1197,5.1302,5.1332,5.1358,5.1006,5.1004,5.1003,0,0,4.9993,5.0058,5.0199,5.0266,5.0367,5.04,5.0434,5.0531,5.0562,5.073,5.0711,5.0819,5.102,5.1092,5.1155,5.1383,5.1364,5.1419,5.1527,5.1632,5.1657,5.168,5.176,5.1789,5.1438,5.1438,5.1438,0,5.0077,5.0255,5.0273,5.0405,5.0474,5.0453,5.0595,5.0661,5.0795,5.0843,5.0798,5.1049,5.1116,5.1319,5.1374,5.1427,5.1466,5.1407,5.1652,5.1675,5.1696,5.1773,5.1803,5.1444,5.1443,5.1443,5.1442,0,5.0352,5.0477,5.0578,5.0705,5.0786,5.0923,5.0962,5.1042,5.1044,5.1082,5.1252,5.1331,5.1458,5.1507,5.1512,5.1712,5.1685,5.1646,5.1565,5.1732,5.1804,5.1834,5.1453,5.1451,5.1449,5.1447,0,0,5.0601,5.0735,5.0772,5.0828,5.0938,5.1035,5.1171,5.1293,5.1361,5.1454,5.1569,5.1739,5.1703,5.1775,5.1787,5.188,5.2054,5.1829,5.1832,5.1868,5.2278,5.2306,5.234,5.2042,5.2047,5.2052,5.2269,0,5.0812,5.1049,5.1069,5.1284,5.1398,5.1379,5.1498,5.1578,5.1617,5.1721,5.1765,5.1885,5.1829,5.1872,5.1963,5.2013,5.2136,5.1998,5.2149,5.2154,5.2123,5.2378,5.2408,5.261,5.2298,5.2303,5.2306,0,5.109,5.1188,5.1413,5.1505,5.1554,5.166,5.1773,5.1872,5.1964,5.1985,5.2065,5.2064,5.2205,5.2118,5.2312,5.2218,5.2281,5.2315,5.2323,5.2338,5.224,5.2399,5.2675,5.2704,5.2351,5.2348,5.2345,0,5.1247,5.1436,5.1595,5.1644,5.1756,5.1831,5.1881,5.1966,5.2038,5.2138,5.2185,5.23,5.2364,5.2454,5.2484,5.2418,5.2677,5.2593,5.2699,5.2699,5.2754,5.275,5.3043,5.2797,5.2796,5.2796,5.2795,0,5.148,5.1618,5.1667,5.1765,5.1919,5.1941,5.2094,5.214,5.2216,5.2323,5.2315,5.2416,5.245,5.2557,5.2583,5.2739,5.2768,5.279,5.2795,5.2791,5.2788,5.2832,5.2818,5.2804,5.2802,5.28,5.2799,0,5.1682,5.172,5.1892,5.1983,5.2009,5.2119,5.2197,5.2292,5.2328,5.2464,5.2497,5.2555,5.2681,5.272,5.2872,5.2889,5.3072,5.3065,5.304,5.3041,5.3144,5.3133,5.3475,5.3521,5.3245,5.3247,5.3249,0,5.1828,5.1933,5.2035,5.2105,5.2157,5.2271,5.2343,5.2369,5.2445,5.2556,5.2638,5.2761,5.2861,5.3063,5.312,5.3236,5.3231,5.3343,5.3249,5.324,5.3232,5.3225,5.3235,5.336,5.3363,5.3366,5.3368,0,5.2082,5.2095,5.2199,5.231,5.2396,5.2485,5.2571,5.263,5.2668,5.2754,5.2881,5.2959,5.3113,5.3236,5.3353,5.3406,5.3394,5.3397,5.3427,5.3423,5.3404,5.3415,5.3088,5.3389,5.3387,5.3385,5.3384,5.3383,5.226,5.2352,5.2437,5.2553,5.262,5.27,5.2793,5.284,5.2946,5.3072,5.3081,5.3218,5.3306,5.3463,5.3522,5.363,5.3598,5.3643,5.3654,5.3664,5.3672,5.3387,5.3652,5.3651,5.3651,5.3651,5.365,0,5.2512,5.2566,5.2672,5.2791,5.2883,5.2861,5.2955,5.3033,5.3153,5.3235,5.3333,5.3479,5.3598,5.3663,5.3782,5.3856,5.3853,5.3886,5.3881,5.3893,5.3694,5.3655,5.3887,5.3887,5.3886,5.3886,5.3886,5.3886,5.2654,5.2809,5.2832,5.302,5.3073,5.3206,5.3261,5.3335,5.34,5.3562,5.366,5.3701,5.3777,5.3901,5.4009,5.4026,5.407,5.4106,5.4119,5.3932,5.3907,5.3884,5.3848,5.4116,5.4116,5.4309,5.431,5.4312]},{"header":{"parameterUnit":"m.s-1","parameterCategory":1,"la1":30.2991,"la2":30.254,"lo1":-89.0895,"lo2":-89.0444,"dy":0.0017,"dx":0.0017,"nx":28,"ny":28,"refTime":"2025-04-15T03:00:00:Z","depth":0,"parameterNumber":3,"parameterNumberName":"V-component_of_WINDS"},"data":[0,0,0,0,0,0,0,0,0,0,0,0,0,0,0,0,0,0,0,0,0,0,0,0,0,0,0,0,0,0,0,0,0,0,0,0,0,0,0,0,0,0,0,0,0,0,0,0,0,0,0,0,0,0,0,0,0,0,0.9164,0.9165,0,0.9207,0.9208,0.9208,0.9193,0.9193,0.9192,0.9191,0.9236,0.9239,0.9241,0,0,0,0,0,0,0,0,0,0,0,0,0,0.907,0.9071,0.9164,0.9165,0.9165,0.9207,0.9208,0.9209,0.9194,0.9192,0.9191,0.919,0.9236,0.9238,0.9241,0,0,0,0,0,0,0,0,0,0,0,0,0,0.9112,0.9072,0.9164,0.9163,0.9163,0.9207,0.9208,0.9209,0.9194,0.9192,0.9191,0.919,0.9235,0.9238,0.9241,0.9289,0,0,0.9251,0.9252,0,0,0,0,0,0,0,0,0.9109,0.9115,0.9162,0.9163,0.9163,0.9194,0.9191,0.9236,0.9194,0.9182,0.9191,0.9189,0.9223,0.9227,0.9239,0.9292,0.9294,0.9251,0.9253,0.9254,0.9255,0,0,0,0,0,0,0,0.9106,0.9113,0.9181,0.9163,0.9164,0.916,0.9165,0.92,0.921,0.9183,0.9182,0.9187,0.9223,0.9236,0.924,0.9294,0.9251,0.9254,0.9256,0.9257,0.9388,0.939,0,0,0,0,0,0,0.9103,0.9111,0.918,0.9183,0.9132,0.9163,0.9168,0.9185,0.921,0.9212,0.9189,0.9187,0.9231,0.9236,0.9241,0.9299,0.9254,0.9257,0.9259,0.9387,0.9389,0.939,0,0,0,0,0,0,0.9101,0.9109,0.9178,0.9146,0.9155,0.9166,0.9186,0.9187,0.9199,0.9214,0.9216,0.9199,0.923,0.9237,0.9277,0.9301,0.9259,0.9262,0.9385,0.9387,0.939,0.9416,0,0,0,0,0,0,0.9098,0.9109,0.9127,0.9147,0.9157,0.9213,0.9187,0.9189,0.9205,0.9202,0.9225,0.9227,0.923,0.9273,0.9281,0.9304,0.9264,0.9383,0.9386,0.9389,0.9413,0.9419,0.9424,0,0,0,0,0,0.9095,0.9133,0.9128,0.9136,0.918,0.9215,0.922,0.9222,0.9207,0.9225,0.9235,0.9226,0.9297,0.9277,0.9286,0.9311,0.9381,0.9385,0.9389,0.9411,0.9418,0.9424,0,0,0,0,0,0,0.9117,0.9136,0.913,0.9176,0.9194,0.9212,0.9236,0.923,0.9253,0.925,0.9252,0.9257,0.9298,0.9309,0.9286,0.9359,0.9337,0.9342,0.9351,0.9358,0.9363,0.936,0.9267,0,0,0,0,0,0.9126,0.9153,0.9168,0.9207,0.9216,0.9225,0.924,0.924,0.9258,0.9266,0.9278,0.9297,0.9324,0.9341,0.9366,0.9414,0.9419,0.9436,0.9441,0.9446,0.9451,0.9477,0.9484,0.9402,0.9402,0.9402,0,0,0.9148,0.9161,0.9178,0.9212,0.9226,0.9253,0.9231,0.9261,0.9282,0.9271,0.931,0.9319,0.934,0.9385,0.9405,0.9395,0.9474,0.945,0.9454,0.9456,0.9481,0.9489,0.9496,0.9405,0.9404,0.9404,0,0,0.9201,0.9213,0.9247,0.9261,0.9282,0.9287,0.9295,0.9314,0.932,0.9359,0.9351,0.9375,0.942,0.9436,0.9449,0.9507,0.95,0.9515,0.9544,0.9569,0.9576,0.9581,0.9602,0.961,0.9519,0.952,0.952,0,0.9224,0.9265,0.9265,0.9296,0.9311,0.9301,0.9336,0.9349,0.9377,0.9388,0.9376,0.9432,0.9445,0.9493,0.9507,0.9518,0.9528,0.9513,0.9575,0.958,0.9586,0.9606,0.9613,0.9521,0.9521,0.9521,0.9521,0,0.9294,0.9322,0.9347,0.9374,0.9392,0.9424,0.9429,0.9447,0.9445,0.9451,0.9491,0.9506,0.9534,0.9545,0.9544,0.9593,0.9586,0.9574,0.9552,0.9595,0.9614,0.9622,0.9524,0.9523,0.9523,0.9522,0,0,0.9363,0.9388,0.9397,0.9409,0.9431,0.9453,0.9485,0.9511,0.9527,0.9546,0.9573,0.9611,0.96,0.9616,0.9615,0.9638,0.9682,0.9623,0.9624,0.9634,0.9737,0.9747,0.9755,0.9677,0.9679,0.968,0.9736,0,0.9418,0.9473,0.9474,0.9525,0.9551,0.9541,0.9569,0.9585,0.9592,0.9615,0.9622,0.9649,0.9633,0.9642,0.9663,0.9672,0.9703,0.9668,0.9703,0.9704,0.9699,0.9765,0.9775,0.9827,0.9743,0.9744,0.9745,0,0.949,0.9511,0.9564,0.9581,0.9593,0.9617,0.9642,0.9664,0.9682,0.9685,0.9702,0.9698,0.9731,0.9707,0.9752,0.9728,0.9742,0.9748,0.975,0.9754,0.9728,0.9772,0.9844,0.9852,0.9756,0.9756,0.9755,0,0.9535,0.9577,0.9614,0.9624,0.9645,0.9663,0.9673,0.9689,0.9705,0.9726,0.9736,0.9761,0.9775,0.9794,0.9797,0.9779,0.9842,0.9819,0.9846,0.9846,0.9861,0.986,0.9937,0.9868,0.9868,0.9868,0.9868,0,0.9597,0.963,0.9635,0.9658,0.9695,0.9695,0.9731,0.9739,0.9754,0.9779,0.9772,0.9795,0.9797,0.9821,0.9824,0.986,0.9867,0.987,0.9871,0.9871,0.9871,0.9881,0.9878,0.987,0.987,0.9869,0.9869,0,0.9654,0.9659,0.9699,0.9715,0.972,0.9746,0.976,0.9782,0.9787,0.9819,0.9826,0.9834,0.9862,0.9867,0.99,0.9901,0.9945,0.9942,0.9939,0.9939,0.9966,0.9964,1.0053,1.0065,0.9988,0.9989,0.999,0,0.9694,0.9719,0.9738,0.9753,0.9764,0.9789,0.9805,0.9805,0.9822,0.9844,0.9864,0.9891,0.9912,0.9957,0.9967,0.9991,0.9989,1.0018,0.9993,0.9992,0.999,0.9989,0.9991,1.0024,1.0025,1.0025,1.0026,0,0.9764,0.9764,0.9787,0.9811,0.983,0.9848,0.9866,0.9879,0.9882,0.9901,0.9929,0.9946,0.9979,1.0006,1.003,1.004,1.0034,1.0034,1.0041,1.0043,1.004,1.0042,0.9954,1.0032,1.0031,1.0031,1.003,1.003,0.9814,0.9836,0.9852,0.9878,0.9891,0.9907,0.9929,0.9936,0.9959,0.9986,0.9985,1.0016,1.0032,1.0065,1.0076,1.01,1.0091,1.0102,1.0105,1.0108,1.0111,1.0036,1.0105,1.0105,1.0104,1.0104,1.0104,0,0.9884,0.9893,0.9917,0.9941,0.9961,0.9952,0.9971,0.9989,1.0016,1.0032,1.0053,1.0085,1.0111,1.0121,1.0147,1.0164,1.0162,1.0171,1.017,1.0172,1.0118,1.0109,1.0172,1.0172,1.0172,1.0172,1.0172,1.0172,0.9922,0.9959,0.9961,1.0004,1.0014,1.0044,1.0055,1.007,1.0083,1.0119,1.014,1.0147,1.0161,1.0187,1.021,1.0212,1.0222,1.0233,1.0234,1.0183,1.0176,1.017,1.0161,1.0235,1.0235,1.0287,1.0287,1.0288]}]]